Location: Sungai Apap
(2.6167°N, 113.3833°E)
Time: 14:44:38
(UTC+00:00)

Cosmos 158 Rocket - Pass Details

Date: 25 May 2024
Orbit: 695 x 790 km, 74.0° (Epoch: 12 June)

Event Time Altitude Azimuth Distance (km) Brightness Sun altitude
Rises 20:19:13 0° 351° (N) 3,248 7.4 -27.7°
Reaches altitude 10° 20:21:37 10° 353° (N) 2,313 6.7 -27.1°
Maximum altitude 20:26:52 75° 78° (ENE) 790 4.1 -25.9°
Drops below altitude 10° 20:31:59 10° 163° (SSE) 2,262 6.3 -24.8°
Sets 20:34:19 0° 164° (SSE) 3,172 7.1 -24.3°
